Weather History for Kremmling, CO

Change the Weather History Date:

Tuesday, October 22, 2013

  Actual Average (KEGE) Record (KEGE)
Temperature  
Mean Temperature 39 °F -  
Max Temperature 59 °F 59 °F 78 °F (2003)
Min Temperature 19 °F 25 °F 7 °F (1958)
Degree Days  
Heating Degree Days 26    
Moisture  
Dew Point 22 °F    
Average Humidity 62    
Maximum Humidity 93    
Minimum Humidity 23    
Precipitation  
Precipitation 0.00 in - - ()
Sea Level Pressure  
Sea Level Pressure 30.34 in    
Wind  
Wind Speed 1 mph (SW)    
Max Wind Speed 7 mph    
Max Gust Speed -    
Visibility 10 miles    
Events      
Averages and records for this station are not official NWS values.
T = Trace of Precipitation, MM = Missing Value Source: NWS Daily Summary

Daily Weather History Graph

Daily Weather History Graph

Search for Another Location

Airport:

Trip Planner

Search our weather history database for the weather conditions in past years. The results will help you decide how hot, cold, wet, or windy it might be!

Date:

Astronomy

Oct. 22, 2013 Rise Set
Actual Time 7:23 AM MDT 6:15 PM MDT
Civil Twilight 6:56 AM MDT 6:42 PM MDT
Nautical Twilight 6:24 AM MDT 7:14 PM MDT
Astronomical Twilight 5:53 AM MDT 7:45 PM MDT
Moon 8:58 PM MDT (10/22) 10:54 AM MDT (10/22)
Length of Visible Light 11h 46m
Length of Day
10h 51m
Waning Gibbous, 86% of the Moon is Illuminated
Oct 22
Waning Gibbous
Oct 26
Last Quarter
Nov 3
New
Nov 9
First Quarter
Nov 17
Full

Hourly Weather History & Observations

Time (MDT) Temp. Windchill Dew Point Humidity Pressure Visibility Wind Dir Wind Speed Gust Speed Precip Events Conditions
12:16 AM 28.4 °F - 21.2 °F 74% 30.34 in 10.0 mi Calm Calm - N/A   Clear
12:35 AM 28.4 °F - 23.0 °F 80% 30.35 in 10.0 mi Calm Calm - N/A   Clear
12:56 AM 24.8 °F - 19.4 °F 80% 30.35 in 10.0 mi Calm Calm - N/A   Clear
1:15 AM 24.8 °F - 21.2 °F 86% 30.35 in 10.0 mi Calm Calm - N/A   Clear
1:36 AM 23.0 °F - 19.4 °F 86% 30.36 in 10.0 mi Calm Calm - N/A   Clear
1:56 AM 23.0 °F - 19.4 °F 86% 30.36 in 10.0 mi Calm Calm - N/A   Clear
2:16 AM 23.0 °F - 19.4 °F 86% 30.36 in 10.0 mi Calm Calm - N/A   Clear
2:36 AM 21.2 °F - 17.6 °F 86% 30.36 in 10.0 mi Calm Calm - N/A   Clear
2:56 AM 23.0 °F - 19.4 °F 86% 30.36 in 10.0 mi Calm Calm - N/A   Clear
3:16 AM 23.0 °F - 19.4 °F 86% 30.36 in 10.0 mi Calm Calm - N/A   Clear
3:36 AM 23.0 °F - 19.4 °F 86% 30.36 in 10.0 mi Calm Calm - N/A   Clear
3:56 AM 21.2 °F - 19.4 °F 93% 30.36 in 10.0 mi Calm Calm - N/A   Clear
4:16 AM 23.0 °F - 19.4 °F 86% 30.36 in 10.0 mi Calm Calm - N/A   Clear
4:36 AM 21.2 °F - 19.4 °F 93% 30.37 in 10.0 mi Calm Calm - N/A   Clear
4:56 AM 21.2 °F - 17.6 °F 86% 30.37 in 10.0 mi Calm Calm - N/A   Clear
5:16 AM 21.2 °F - 17.6 °F 86% 30.38 in 10.0 mi Calm Calm - N/A   Clear
5:36 AM 21.2 °F - 17.6 °F 86% 30.38 in 10.0 mi Calm Calm - N/A   Clear
5:55 AM 21.2 °F - 19.4 °F 93% 30.38 in 10.0 mi Calm Calm - N/A   Clear
6:16 AM 19.4 °F - 17.6 °F 93% 30.39 in 10.0 mi Calm Calm - N/A   Clear
6:36 AM 19.4 °F - 17.6 °F 93% 30.39 in 10.0 mi Calm Calm - N/A   Clear
6:56 AM 19.4 °F - 17.6 °F 93% 30.39 in 10.0 mi Calm Calm - N/A   Clear
7:16 AM 19.4 °F - 17.6 °F 93% 30.40 in 10.0 mi Calm Calm - N/A   Clear
7:36 AM 19.4 °F - 14.0 °F 80% 30.40 in 10.0 mi Calm Calm - N/A   Clear
7:56 AM 21.2 °F - 17.6 °F 86% 30.40 in 10.0 mi Calm Calm - N/A   Clear
8:15 AM 21.2 °F - 17.6 °F 86% 30.41 in 10.0 mi Calm Calm - N/A   Clear
8:35 AM 24.8 °F - 21.2 °F 86% 30.41 in 10.0 mi Calm Calm - N/A   Clear
8:56 AM 28.4 °F - 23.0 °F 80% 30.41 in 10.0 mi Calm Calm - N/A   Clear
9:16 AM 30.2 °F - 24.8 °F 80% 30.41 in 10.0 mi Calm Calm - N/A   Clear
9:36 AM 30.2 °F - 23.0 °F 75% 30.42 in 10.0 mi Calm Calm - N/A   Clear
9:56 AM 32.0 °F - 24.8 °F 75% 30.42 in 10.0 mi Calm Calm - N/A   Clear
10:15 AM 33.8 °F - 24.8 °F 70% 30.41 in 10.0 mi Calm Calm - N/A   Clear
10:36 AM 35.6 °F - 23.0 °F 60% 30.41 in 10.0 mi Calm Calm - N/A   Clear
10:56 AM 37.4 °F - 23.0 °F 56% 30.41 in 10.0 mi Calm Calm - N/A   Clear
11:16 AM 41.0 °F - 23.0 °F 49% 30.40 in 10.0 mi Calm Calm - N/A   Clear
11:35 AM 41.0 °F - 23.0 °F 49% 30.39 in 10.0 mi Calm Calm - N/A   Clear
11:56 AM 42.8 °F - 23.0 °F 46% 30.37 in 10.0 mi Calm Calm - N/A   Clear
12:16 PM 46.4 °F - 23.0 °F 40% 30.36 in 10.0 mi Calm Calm - N/A   Clear
12:36 PM 50.0 °F - 23.0 °F 35% 30.35 in 10.0 mi Calm Calm - N/A   Clear
12:56 PM 51.8 °F - 23.0 °F 33% 30.33 in 10.0 mi Calm Calm - N/A   Clear
1:16 PM 53.6 °F - 23.0 °F 30% 30.32 in 10.0 mi Calm Calm - N/A   Clear
1:36 PM 53.6 °F - 23.0 °F 30% 30.31 in 10.0 mi Calm Calm - N/A   Clear
1:56 PM 55.4 °F - 21.2 °F 26% 30.30 in 10.0 mi ESE 3.5 mph - N/A   Clear
2:16 PM 55.4 °F - 23.0 °F 29% 30.29 in 10.0 mi SW 3.5 mph - N/A   Clear
2:36 PM 55.4 °F - 21.2 °F 26% 30.28 in 10.0 mi SSW 3.5 mph - N/A   Clear
2:56 PM 55.4 °F - 21.2 °F 26% 30.28 in 10.0 mi Calm Calm - N/A   Clear
3:16 PM 59.0 °F - 21.2 °F 23% 30.28 in 10.0 mi SW 3.5 mph - N/A   Clear
3:36 PM 59.0 °F - 21.2 °F 23% 30.27 in 10.0 mi Calm Calm - N/A   Clear
3:56 PM 59.0 °F - 21.2 °F 23% 30.27 in 10.0 mi West 5.8 mph - N/A   Clear
4:16 PM 59.0 °F - 21.2 °F 23% 30.27 in 10.0 mi SW 6.9 mph - N/A   Clear
4:36 PM 59.0 °F - 21.2 °F 23% 30.26 in 10.0 mi WSW 4.6 mph - N/A   Clear
4:56 PM 59.0 °F - 21.2 °F 23% 30.26 in 10.0 mi Calm Calm - N/A   Clear
5:15 PM 59.0 °F - 21.2 °F 23% 30.26 in 10.0 mi NNW 4.6 mph - N/A   Clear
5:36 PM 55.4 °F - 23.0 °F 29% 30.27 in 10.0 mi NNW 3.5 mph - N/A   Clear
5:55 PM 53.6 °F - 23.0 °F 30% 30.27 in 10.0 mi WNW 3.5 mph - N/A   Clear
6:16 PM 51.8 °F - 23.0 °F 33% 30.27 in 10.0 mi Calm Calm - N/A   Clear
6:36 PM 50.0 °F - 23.0 °F 35% 30.28 in 10.0 mi Calm Calm - N/A   Clear
6:56 PM 44.6 °F - 24.8 °F 46% 30.28 in 10.0 mi Calm Calm - N/A   Clear
7:16 PM 41.0 °F 38.0 °F 24.8 °F 53% 30.29 in 10.0 mi SSE 4.6 mph - N/A   Clear
7:36 PM 46.4 °F 44.3 °F 26.6 °F 46% 30.29 in 10.0 mi WNW 4.6 mph - N/A   Clear
7:56 PM 41.0 °F - 24.8 °F 53% 30.29 in 10.0 mi Calm Calm - N/A   Clear
8:16 PM 39.2 °F - 23.0 °F 52% 30.30 in 10.0 mi Calm Calm - N/A   Clear
8:36 PM 37.4 °F - 24.8 °F 60% 30.30 in 10.0 mi Calm Calm - N/A   Clear
8:55 PM 33.8 °F - 23.0 °F 65% 30.31 in 10.0 mi Calm Calm - N/A   Clear
9:16 PM 33.8 °F - 24.8 °F 70% 30.31 in 10.0 mi Calm Calm - N/A   Clear
9:35 PM 35.6 °F - 26.6 °F 70% 30.32 in 10.0 mi Calm Calm - N/A   Clear
9:55 PM 33.8 °F 29.6 °F 24.8 °F 70% 30.32 in 10.0 mi ESE 4.6 mph - N/A   Clear
10:16 PM 33.8 °F 29.6 °F 26.6 °F 75% 30.32 in 10.0 mi East 4.6 mph - N/A   Clear
10:36 PM 33.8 °F - 26.6 °F 75% 30.32 in 10.0 mi Calm Calm - N/A   Clear
10:55 PM 32.0 °F - 24.8 °F 75% 30.33 in 10.0 mi Calm Calm - N/A   Clear
11:16 PM 30.2 °F - 23.0 °F 75% 30.33 in 10.0 mi Calm Calm - N/A   Clear
11:36 PM 30.2 °F - 23.0 °F 75% 30.33 in 7.0 mi Calm Calm - N/A   Clear
11:56 PM 30.2 °F - 23.0 °F 75% 30.33 in 10.0 mi Calm Calm - N/A   Clear